Regional Weather Roundup
Issued by NWS

Home | Current Version | Previous Version | Text Only | Print | Product List | Glossary Off
Versions: 1 2 3 4 5 6 7 8 9 10 11 12 13 14 15 16 17 18 19 20 21 22 23 24 25 26 27 28 29 30 31 32 33 34 35 36 37 38 39 40 41 42 43 44 45 46 47 48 49 50

000
ASUS45 KTFX 291904
RWRMT
MONTANA HOURLY WEATHER ROUNDUP
NATIONAL WEATHER SERVICE GREAT FALLS MT
104 PM MDT TUE JUL 29 2014

NOTE: "FAIR" INDICATES FEW OR NO CLOUDS BELOW 12000 FEET WITH NO
SIGNIFICANT WEATHER AND/OR OBSTRUCTIONS TO VISIBILITY.

* THESE STATIONS ARE NOT UNDER NWS QUALITY CONTROL. THEY DO NOT
   REPORT WEATHER SUCH AS PRECIPITATION OR FOG.

MTZ001>007-043-292000-
WEST OF THE DIVIDE
CITY           SKY/WX    TMP DP  RH WIND       PRES   REMARKS
KALISPELL      SUNNY     86  54  33 VRB5      30.14F
MISSOULA       SUNNY     90  43  19 NW5       30.15F
BUTTE          PTCLDY    82  43  25 N/A       30.27F
MULLAN PASS    SUNNY     75  34  22 CALM      30.35F
* LINCOLN      N/A       85  47  27 SE4        N/A
* LOOKOUT PASS N/A       83  40  22 SE2G7      N/A
* POLSON       N/A       88  54  31 S3         N/A
* RONAN APT    SUNNY     82  50  33 NW6        N/A
* SEELEY LAKE  N/A       86  38  18 W5         N/A
* THOMP F APT  SUNNY     76  43  31 S3G8       N/A
* YAAK HILL    N/A       88  49  26 SW2        N/A
$$

MTZ008-052>055-292000-
SOUTHWEST MONTANA
CITY           SKY/WX    TMP DP  RH WIND       PRES   REMARKS
BOZEMAN        PTCLDY    84  45  26 N5        30.22F
DILLON         PTCLDY    82  46  28 N7        30.24F
W YELLOWSTONE  CLOUDY    68  48  49 S3        30.37S
* THREE FORKS  PTCLDY    84  54  36 N/A        N/A
* BOULDER HILL N/A       76  44  32 NE5G12     N/A
* MONIDA PASS  N/A       74  39  28 NE10       N/A
* RAYNOLDS PAS N/A       68  41  38 SE6        N/A
* WHITEHALL    N/A       85  50  30 SE4G9      N/A
* WISE RIVER   N/A       80  45  29 N4         N/A
$$

MTZ009>010-012-014-046-048-049-054-292000-
EAST SLOPES AND CENTRAL MONTANA
CITY           SKY/WX    TMP DP  RH WIND       PRES   REMARKS
CUT BANK       SUNNY     86  46  25 E9        30.22F
GREAT FALLS    SUNNY     86  46  25 E8        30.19F
HELENA         PTCLDY    86  45  24 CALM      30.19F
MALMSTROM AFB  SUNNY     86  41  20 VRB6G26   30.19F
* DEARBORN     N/A       85  49  29 N9G14      N/A
* EAST GLACIER N/A       80  48  33 S8         N/A
* MONARCH      N/A       79  46  31 N9G14      N/A
* ROGERS PASS  N/A       80  42  26 NW4G11     N/A
* SAINT MARY   N/A       85  47  27 N6         N/A
* SWEET GRASS  N/A       87  45  23 SE9G17     N/A
$$

MTZ011-013-016-021-035-040-045-047-050-051-292000-
NORTH CENTRAL MONTANA
CITY           SKY/WX    TMP DP  RH WIND       PRES   REMARKS
HAVRE          SUNNY     90  50  25 VRB5      30.16F
LEWISTOWN      PTCLDY    84  45  26 VRB7      30.24F
* CHESTER      N/A       85  45  25 SE6G13     N/A
* DENTON       N/A       88  51  28 SE11       N/A
* GEYSER       N/A       85  50  30 E6G20      N/A
* JUDITH GAP   N/A       79  50  36 SE12G17    N/A
* LOMA         N/A       89  46  23 E10G19     N/A
$$

MTZ017>020-022>027-061-062-292000-
NORTHEAST MONTANA
CITY           SKY/WX    TMP DP  RH WIND       PRES   REMARKS
GLASGOW        SUNNY     88  43  21 VRB7      30.18F
GLENDIVE       SUNNY     84  46  26 N7G16     30.20F
JORDAN         SUNNY     88  39  18 N/A       30.18F
SIDNEY         SUNNY     82  54  38 N6        30.19F
WOLF POINT     SUNNY     90  45  21 NE9       30.18F
* BEAVER HILL  N/A       80  49  34 NW9G14     N/A
* CIRCLE       N/A       86  49  28 N/A        N/A
* LINDSAY DVD  N/A       82  48  31 NW9G17     N/A
$$

MTZ028>042-056>058-292000-
SOUTHCENTRAL AND SOUTHEAST MONTANA
CITY           SKY/WX    TMP DP  RH WIND       PRES   REMARKS
BAKER          PTCLDY    82  48  31 VRB3      30.23F
BILLINGS       PTCLDY    88  52  29 NE9       30.20F
LIVINGSTON     PTCLDY    84  45  26 E12       30.24F
MILES CITY     SUNNY     84  52  33 E6        30.19F
* LAUREL APT   PTCLDY    84  50  31 N/A        N/A
* ROUNDUP APT  SUNNY     84  41  22 SE7        N/A
* ALZADA       N/A       78  53  42 N/A        N/A
* HYSHAM       N/A       83  46  27 SE9G17     N/A
* LAME DEER    N/A       77  51  40 SE5G13     N/A
* REED POINT   N/A       87  52  30 NE3G8      N/A
* ROSCOE HILL  N/A       80  46  30 E12G21     N/A
$$

REGIONAL REPORTS...DAKOTAS
CITY           SKY/WX    TMP DP  RH WIND       PRES   REMARKS
WILLISTON      SUNNY     82  52  35 NW8       30.18F
DICKINSON      PTCLDY    79  54  42 S6        30.19F
CROSBY         SUNNY     77  59  54 CALM      30.21F
TIOGA          PTSUNNY   75  57  54 E3        30.22F
WATFORD CITY   PTCLDY    81  55  41 N7        30.16F HI  81
BISMARCK       PTCLDY    79  54  42 CALM      30.20F
GRAND FORKS    PTCLDY    77  55  47 NW3       30.14F
FARGO          PTCLDY    79  52  39 NW10G18   30.14F
BUFFALO SD     PTCLDY    79  52  39 SW8       30.17S
RAPID CITY     CLOUDY    66  57  73 CALM      30.27S
$$

REGIONAL REPORTS...WYOMING/IDAHO/WASHINGTON
CITY           SKY/WX    TMP DP  RH WIND       PRES   REMARKS
GILLETTE       CLOUDY    68  61  78 N3        30.30R
SHERIDAN       CLOUDY    81  46  29 S5        30.25F
YELLOWSTONE LA CLOUDY    61  48  62 E5        30.48R
SALMON         PTCLDY    82  50  33 NW5       30.11F
MULLAN PASS    SUNNY     75  34  22 CALM      30.35S
SAND POINT     SUNNY     82  54  38 SE6       30.10F
SPOKANE        SUNNY     91  48  23 NE5       30.09F

$$




USA.gov is the U.S. government's official web portal to all federal, state and local government web resources and services.